Weather History for Lanseria, South Africa

Change the Weather History Date:

Thursday, September 12, 2013

  Actual Average Record
Temperature  
Mean Temperature 70 °F -  
Max Temperature 80 °F - - ()
Min Temperature 59 °F - - ()
Cooling Degree Days 4    
Growing Degree Days 20 (Base 50)    
Moisture  
Dew Point 43 °F    
Average Humidity 39    
Maximum Humidity 59    
Minimum Humidity 22    
Precipitation  
Precipitation 0.00 in - - ()
Sea Level Pressure  
Sea Level Pressure 30.11 in    
Wind  
Wind Speed 8 mph ()    
Max Wind Speed 15 mph    
Max Gust Speed -    
T = Trace of Precipitation, MM = Missing Value Source: Averaged Metar Reports

Daily Weather History Graph

Daily Weather History Graph

Search for Another Location

Airport:

Trip Planner

Search our weather history database for the weather conditions in past years. The results will help you decide how hot, cold, wet, or windy it might be!

Date:

Astronomy

Sep. 12, 2013 Rise Set
Actual Time 6:08 AM SAST 6:00 PM SAST
Civil Twilight 5:45 AM SAST 6:23 PM SAST
Nautical Twilight 5:19 AM SAST 6:50 PM SAST
Astronomical Twilight 4:52 AM SAST 7:16 PM SAST
Moon 11:01 AM SAST (9/12) No Moon Set
Length of Visible Light 12h 37m
Length of Day
11h 51m
Waxing Crescent, 47% of the Moon is Illuminated
Sep 12
Waxing Crescent
Sep 12
First Quarter
Sep 19
Full
Sep 27
Last Quarter
Oct 5
New

Hourly Weather History & Observations

Time (SAST) Temp. Dew Point Humidity Pressure Visibility Wind Dir Wind Speed Gust Speed Precip Events Conditions
5:00 AM 59.0 °F 41.0 °F 51% 30.12 in - South 3.5 mph - N/A   Clear
6:00 AM 59.0 °F 42.8 °F 55% 30.12 in - East 4.6 mph - N/A   Clear
7:00 AM 59.0 °F 44.6 °F 59% 30.15 in - SSE 4.6 mph - N/A   Clear
7:14 AM 62.6 °F 44.6 °F 52% 30.15 in - East 5.8 mph - N/A   Clear
8:00 AM 64.4 °F 46.4 °F 52% 30.18 in - ENE 8.1 mph - N/A   Clear
8:51 AM 68.0 °F 46.4 °F 46% 30.18 in - NNE 11.5 mph - N/A   Clear
9:00 AM 68.0 °F 46.4 °F 46% 30.18 in - NNE 11.5 mph - N/A   Clear
10:00 AM 69.8 °F 46.4 °F 43% 30.18 in - NNE 15.0 mph - N/A   Clear
11:00 AM 73.4 °F 46.4 °F 38% 30.15 in - North 11.5 mph - N/A   Clear
12:00 PM 77.0 °F 46.4 °F 34% 30.12 in - North 15.0 mph - N/A   Clear
1:00 PM 75.2 °F 42.8 °F 31% 30.09 in - NW 15.0 mph - N/A   Clear
2:00 PM 78.8 °F 44.6 °F 30% 30.06 in - North 15.0 mph - N/A   Clear
3:00 PM 78.8 °F 44.6 °F 30% 30.06 in - NNW 13.8 mph - N/A   Clear
4:00 PM 80.6 °F 44.6 °F 28% 30.04 in - NNW 11.5 mph - N/A   Clear
5:00 PM 80.6 °F 39.2 °F 23% 30.04 in - NW 13.8 mph - N/A   Clear
6:00 PM 77.0 °F 35.6 °F 22% 30.04 in - NNW 9.2 mph - N/A   Clear
7:00 PM 73.4 °F 37.4 °F 27% 30.06 in - North 10.4 mph - N/A   Clear
8:00 PM 71.6 °F 37.4 °F 29% 30.06 in - North 8.1 mph - N/A   Clear
9:00 PM 69.8 °F 41.0 °F 35% 30.09 in - ENE 12.7 mph - N/A   Clear
10:00 PM 68.0 °F 42.8 °F 40% 30.09 in - NNE 8.1 mph - N/A   Clear